Theta_e
316 311 308 307 307 307 308 309 310 311 311 313 316 319 320 321 320 320 323 322 321 324 326 324 322 323 325 323 326 327 326 325 324 327 327 329 329 329 330 329 328 328 330 329 326 326 326 328 328 329 328 326 327 327
314 312 308 306 306 307 307 307 308 311 311 313 315 318 320 321 320 320 323 323 321 322 326 324 321 321 323 324 325 326 325 327 325 328 328 328 327 328 328 327 328 328 327 327 326 327 326 325 325 327 327 327 327 326
312 310 307 306 306 306 306 307 307 310 312 312 314 317 318 320 320 320 321 322 321 324 324 325 324 323 320 320 321 323 325 324 324 323 324 325 326 326 326 325 326 327 326 326 326 326 326 325 326 327 327 327 327 326
310 309 307 306 305 305 306 306 306 309 311 312 313 316 318 319 320 320 320 322 321 322 325 326 323 322 321 321 321 321 322 323 321 322 322 325 325 326 326 326 326 325 325 326 326 325 325 326 326 326 326 326 326 326
309 307 306 305 305 305 305 305 306 307 310 311 311 314 317 318 319 320 321 322 320 321 326 325 324 322 321 320 320 320 320 321 323 324 325 325 325 326 325 326 325 324 328 327 326 325 327 327 326 325 325 326 325 326
307 306 305 305 305 305 305 305 305 306 308 310 310 311 316 316 317 320 324 322 318 319 322 325 324 323 321 320 321 320 321 321 323 323 324 324 325 325 326 326 325 324 323 325 326 325 325 325 325 325 325 325 326 326
305 304 304 304 304 305 305 305 305 305 307 309 309 310 315 316 317 319 322 321 319 318 323 325 325 322 321 321 322 321 321 321 321 323 323 324 324 324 326 327 325 325 326 325 324 324 324 324 325 325 325 325 327 327
303 303 303 304 304 304 304 305 304 305 307 308 308 311 316 316 317 319 319 319 318 321 322 324 325 324 322 323 323 322 322 322 322 322 323 324 324 325 327 326 327 326 325 324 324 323 324 324 325 325 325 327 327 326
303 303 303 303 303 304 304 305 304 305 307 308 312 316 316 317 321 322 321 320 318 321 325 324 325 328 324 323 325 325 324 324 324 325 325 325 326 326 327 328 327 325 324 325 324 324 324 325 325 327 328 327 327 326
302 302 302 302 303 303 304 304 304 307 309 310 316 319 322 322 319 317 319 321 321 322 320 323 323 324 322 323 324 324 324 325 326 326 325 327 326 328 328 327 325 325 324 323 324 325 325 325 326 327 327 327 325 326
302 302 302 302 302 303 304 305 307 310 313 317 320 321 320 318 319 322 323 322 324 324 322 321 321 322 322 325 327 325 325 325 325 327 327 327 325 329 327 326 324 324 323 322 325 326 326 326 326 326 325 325 324 323
301 302 302 302 302 304 305 306 310 313 316 316 316 318 319 319 320 322 323 323 324 325 323 322 322 323 324 322 324 325 325 325 326 325 325 325 331 327 326 325 324 323 322 323 325 326 326 326 325 325 324 322 321 321
301 301 302 302 303 305 306 308 310 312 314 317 318 320 320 320 321 322 323 324 325 323 323 324 323 323 323 322 324 325 324 324 323 324 325 330 328 326 325 325 324 322 324 325 326 326 325 324 323 321 320 320 321 321
301 301 302 302 303 305 307 310 311 311 314 318 318 314 321 321 321 322 324 327 325 324 324 324 324 324 324 324 324 324 324 323 324 323 324 327 325 326 325 324 323 324 326 326 326 324 321 319 318 318 318 319 319 320
301 301 303 303 304 306 310 310 311 312 315 318 319 321 321 320 322 323 322 324 324 323 324 324 324 324 324 323 323 322 324 324 323 325 326 324 326 326 326 326 325 326 326 325 323 321 318 317 317 317 317 318 319 319
301 305 306 304 306 308 310 311 311 312 315 316 318 320 320 322 322 322 321 322 322 322 322 323 323 324 324 324 323 323 322 322 324 324 323 325 327 325 327 327 327 326 325 324 322 319 318 317 315 315 316 316 316 317
304 306 307 305 308 309 310 312 313 313 315 317 317 317 319 322 323 322 322 322 322 322 324 322 322 324 322 323 323 323 323 324 322 322 323 328 329 328 326 325 327 326 325 323 320 319 319 318 317 316 315 313 312 313
304 306 307 307 310 310 311 311 313 314 315 315 316 317 318 318 320 321 321 321 321 321 321 322 322 322 322 322 322 324 322 322 322 321 322 327 328 327 326 324 325 324 324 322 318 319 319 318 316 315 314 313 312 311
304 306 307 309 309 310 310 311 311 314 315 315 315 315 317 318 318 319 319 319 320 320 320 320 322 322 322 321 322 322 322 321 322 321 324 326 327 325 326 323 324 323 323 320 321 319 318 317 316 315 313 313 313 312
303 305 307 307 308 310 309 310 310 313 314 315 315 316 316 317 317 318 317 318 318 319 319 320 321 320 320 321 321 322 321 321 321 320 323 323 323 321 321 321 324 325 323 321 318 318 316 315 313 313 315 314 313 312
302 304 305 307 307 308 309 310 312 314 314 313 314 315 316 316 316 317 317 317 318 317 318 318 318 319 319 320 320 322 322 322 321 324 325 322 321 318 318 323 322 320 319 318 317 318 318 317 316 316 315 315 314 313
305 306 305 305 307 307 307 309 312 313 314 314 315 316 316 316 317 316 316 317 318 318 318 318 318 319 319 320 321 321 322 322 326 324 322 322 320 317 317 318 317 315 314 315 314 314 314 313 314 313 313 313 312 312
304 305 306 306 307 307 309 311 312 312 314 316 315 316 317 316 316 317 318 318 318 318 318 319 319 319 320 321 322 322 322 323 324 324 322 317 316 316 316 316 316 316 315 314 314 314 313 313 313 314 314 314 313 311
302 305 306 307 307 309 310 311 312 312 314 315 316 316 316 316 317 318 320 319 319 320 320 319 320 321 321 321 321 322 323 322 324 322 320 317 316 316 316 316 316 316 316 316 315 315 315 314 313 313 313 313 313 313
304 305 306 306 307 309 311 313 313 313 314 315 315 315 315 315 317 319 319 319 319 321 322 321 321 320 321 321 321 322 323 323 322 322 319 319 317 317 317 317 317 317 316 316 316 316 315 315 315 315 314 314 313 312
305 306 307 308 309 311 312 313 314 315 315 315 315 314 315 316 318 318 319 319 320 320 322 322 321 321 323 323 324 322 322 322 322 320 318 318 317 317 317 317 317 317 317 317 317 316 316 316 316 315 315 315 314 314
304 307 309 309 311 312 313 313 314 315 314 314 315 315 316 319 319 319 322 320 320 320 322 321 322 322 323 320 319 320 323 322 322 322 318 318 318 318 319 318 317 318 318 318 317 316 316 316 316 316 315 315 314 314
308 308 311 312 312 312 313 314 315 316 316 315 316 318 319 320 324 321 320 319 320 322 321 319 320 320 323 323 323 323 321 320 319 317 318 318 318 319 318 319 319 315 316 316 315 318 317 316 315 316 315 315 314 315
310 311 311 312 312 312 313 313 314 315 316 317 318 318 319 320 318 317 318 319 320 321 322 319 319 320 321 322 322 322 320 319 319 318 318 318 317 318 317 318 319 320 320 318 314 313 315 314 315 315 315 316 315 314
309 310 311 311 312 312 312 312 314 315 316 316 317 316 316 315 317 318 318 319 322 322 322 322 322 321 321 322 321 319 320 318 319 318 319 319 318 318 319 320 320 320 319 319 316 315 316 316 317 316 314 314 313 314
311 311 311 311 312 313 313 313 313 314 315 316 315 313 315 316 318 319 320 321 321 320 321 320 320 320 320 321 322 322 322 320 317 317 318 318 318 319 319 319 319 319 318 318 318 317 316 316 315 315 314 314 313 313
311 311 311 312 312 313 313 314 314 315 315 315 316 316 317 318 319 319 319 319 320 319 319 320 320 320 320 320 321 323 321 318 316 317 319 318 318 319 319 319 319 318 317 317 317 317 316 316 315 314 313 313 314 313
310 311 312 311 311 313 314 315 317 318 317 317 317 317 318 318 318 318 318 318 319 318 318 319 319 319 319 319 320 320 319 322 321 319 318 317 318 319 319 319 318 318 318 318 317 317 317 315 314 313 313 312 312 313
Wind_Speed
24 24 23 22 20 18 17 16 16 15 14 13 12 12 12 12 12 11 5 15 12 7 8 6 6 7 7 5 7 7 6 6 6 6 6 7 5 2 3 6 8 6 6 8 8 11 11 9 8 2 8 11 13 15
24 23 22 21 20 18 16 15 15 14 13 12 11 11 11 11 10 9 6 11 12 7 10 9 6 5 4 3 7 7 6 4 8 5 5 4 7 4 6 7 4 3 5 5 4 9 14 9 5 5 9 10 12 17
23 22 21 20 19 18 17 15 14 13 13 11 10 10 10 10 10 10 9 11 14 10 16 12 9 4 5 7 5 6 0 4 2 3 8 4 3 5 7 6 9 4 5 3 6 5 14 18 15 10 11 12 23 21
22 21 21 20 19 18 16 15 14 13 12 11 10 9 9 9 9 9 7 9 9 7 6 11 3 2 5 3 4 6 5 4 6 4 9 5 5 2 5 7 5 9 8 7 10 16 11 11 9 12 15 19 26 25
21 21 20 19 19 17 16 15 14 13 13 12 11 10 9 9 9 9 6 4 5 7 7 9 5 7 3 5 6 5 7 8 7 7 5 5 8 4 6 8 8 8 4 6 9 15 12 14 16 18 22 25 27 29
20 19 19 18 18 17 15 14 14 13 12 11 11 10 9 8 7 6 4 2 4 7 5 4 6 4 4 4 4 6 8 8 8 8 7 7 6 1 4 6 13 16 16 13 11 16 18 18 19 20 24 28 31 31
19 18 18 17 16 16 15 14 13 12 10 10 10 9 8 7 5 4 2 4 5 7 4 6 5 7 5 6 6 6 7 9 9 10 10 13 13 5 6 10 14 10 10 10 10 15 18 21 25 26 27 30 28 30
16 16 16 16 15 15 14 12 11 10 8 8 8 8 7 7 6 4 5 5 5 3 5 4 5 6 7 6 7 6 6 9 10 13 10 11 14 11 7 5 2 5 7 11 14 18 24 27 29 31 34 25 31 32
14 14 14 15 15 14 12 10 9 7 6 5 5 5 6 3 3 5 5 9 6 5 7 5 7 4 5 8 2 3 5 5 9 12 15 11 8 6 4 5 2 5 10 15 19 23 26 28 30 31 30 31 33 32
12 13 13 14 15 14 12 8 5 3 3 2 1 2 5 4 4 7 3 3 5 7 7 8 11 3 6 9 7 4 8 5 4 3 8 4 7 7 7 4 4 8 13 18 23 23 22 29 30 29 29 28 31 29
12 12 13 13 16 14 7 5 4 3 4 2 3 3 2 3 1 4 4 6 8 5 8 12 16 6 4 4 3 3 2 3 4 3 2 3 3 6 2 2 6 12 17 22 19 24 27 31 30 25 25 27 31 32
13 13 12 13 15 10 5 4 8 8 4 3 5 4 3 4 6 4 4 5 4 5 7 10 9 9 5 2 4 2 3 2 4 3 3 3 4 6 1 6 12 18 21 21 23 26 26 24 24 25 24 30 32 32
13 13 12 13 13 7 7 6 10 9 5 1 3 4 4 4 2 5 6 4 4 5 7 9 9 6 4 3 2 2 2 4 4 2 3 3 6 4 5 11 17 21 20 22 26 21 19 24 23 21 26 26 27 27
12 11 12 13 12 8 8 8 9 8 4 3 5 3 5 5 5 7 8 4 7 6 12 11 8 4 4 3 1 2 3 3 3 4 1 3 2 2 6 12 17 20 22 22 17 20 25 24 24 20 22 22 24 24
10 10 14 14 8 12 11 9 11 9 1 4 6 4 8 14 13 3 5 4 3 7 5 9 10 6 2 2 3 2 2 4 4 3 3 10 3 4 10 14 18 20 16 14 17 19 21 25 23 23 23 21 20 21
6 5 9 2 12 12 12 9 11 8 3 4 6 7 14 11 11 10 7 8 6 7 8 4 2 1 4 3 5 5 3 4 3 1 8 4 4 8 12 17 16 12 11 12 13 18 22 26 23 20 19 19 21 19
2 1 5 4 7 11 11 11 8 5 6 5 8 15 20 9 5 4 4 6 3 5 1 2 3 6 4 3 5 6 5 6 12 15 11 8 6 9 12 15 10 10 10 11 16 22 21 20 22 24 25 25 24 21
4 7 4 6 7 10 8 10 6 6 8 12 12 15 11 15 9 7 7 1 3 7 2 3 6 3 4 6 7 5 8 5 1 4 7 5 7 7 11 9 10 7 9 10 16 19 18 21 24 26 28 29 29 28
11 9 7 7 10 9 5 6 5 5 9 12 14 16 13 10 6 6 9 7 8 5 1 2 4 7 9 10 9 9 4 5 8 6 8 8 9 8 6 8 3 9 9 12 15 18 15 19 26 28 35 39 35 32
14 9 10 8 9 5 3 4 6 7 6 5 11 16 16 10 10 13 16 15 14 14 7 4 10 17 14 5 3 10 5 9 7 7 4 8 10 8 6 5 5 5 6 7 16 16 17 20 23 24 23 24 35 41
7 8 9 8 8 6 3 3 6 8 8 10 14 9 11 14 17 20 19 18 20 22 18 22 24 24 22 14 10 6 2 4 5 4 4 8 7 5 4 8 7 7 6 10 9 9 10 11 16 12 15 14 19 23
7 6 7 8 3 4 5 7 7 6 6 11 10 8 10 11 14 18 18 22 21 22 22 22 23 21 18 18 15 12 9 5 2 1 3 2 1 3 3 4 9 9 9 9 9 11 13 15 13 14 17 16 16 16
4 8 6 7 5 5 5 8 8 5 4 4 11 6 8 14 17 16 12 19 23 21 21 20 20 20 18 12 3 7 9 8 7 5 3 3 5 5 5 7 7 8 9 10 10 11 12 12 15 16 15 15 16 20
11 3 6 6 10 4 5 5 7 7 6 11 4 5 6 7 8 7 7 21 21 12 15 15 17 14 15 14 16 14 13 10 12 6 8 8 9 7 7 8 7 8 8 7 7 8 8 11 13 14 14 16 18 17
5 6 5 5 6 6 6 6 14 9 14 10 11 7 4 6 7 8 7 18 18 14 11 13 14 15 16 15 14 13 17 14 10 9 10 8 9 8 6 6 6 6 7 7 8 8 9 9 7 9 14 14 15 17
4 6 6 10 5 7 6 3 7 9 9 6 5 4 8 8 12 5 12 23 9 14 11 12 14 13 12 17 14 11 6 14 13 12 14 11 12 10 9 8 7 4 5 5 6 7 8 9 10 10 10 11 13 15
3 6 9 10 9 10 7 9 7 5 6 5 5 7 4 5 7 5 4 1 12 11 6 17 16 13 12 11 9 16 12 8 8 10 18 12 10 10 8 7 5 2 1 3 4 4 5 5 6 8 9 10 10 11
5 4 5 8 17 9 3 5 3 4 4 3 3 6 4 3 5 7 7 9 16 4 10 17 10 10 13 19 18 17 12 10 11 14 10 8 9 9 8 5 4 1 3 1 1 3 4 6 4 3 5 7 7 9
6 7 9 6 5 5 5 5 4 3 3 3 3 2 5 7 8 3 3 14 25 28 15 20 20 14 13 13 13 14 10 6 14 17 14 10 10 7 6 5 7 7 7 6 5 7 7 7 6 6 7 4 5 6
9 9 4 2 3 4 8 9 2 4 4 4 2 5 6 7 8 12 23 16 2 15 15 16 17 16 18 21 18 11 9 6 14 18 16 12 11 11 7 6 4 3 9 8 5 1 2 0 4 5 8 5 10 9
3 5 6 9 7 10 9 9 10 9 8 6 5 5 8 12 17 11 5 10 9 11 5 5 8 11 5 17 12 15 16 11 7 25 17 5 5 7 8 2 2 1 7 5 6 3 1 5 4 6 8 6 6 9
5 6 6 7 12 11 11 12 14 14 13 13 13 19 25 16 8 7 6 8 12 8 7 9 9 8 8 11 14 16 10 14 20 24 15 11 12 9 5 4 2 3 3 8 4 3 5 5 5 6 6 5 4 5
9 9 8 6 5 5 8 8 5 7 11 12 14 15 12 12 11 5 1 8 9 8 11 14 11 12 11 8 13 11 12 16 16 16 17 16 7 11 4 2 4 2 4 4 1 3 5 5 6 5 4 4 3 3
Wind_Direction
318 319 320 321 320 318 316 313 316 320 324 328 336 345 351 356 4 26 39 354 10 312 316 351 320 317 313 276 289 57 267 198 269 254 270 277 283 12 325 292 291 274 278 281 291 282 278 39 313 335 352 323 339 332
312 312 314 317 316 314 311 311 310 313 316 321 327 336 342 348 354 358 353 341 337 288 292 308 265 261 242 312 326 326 330 292 4 316 345 324 304 281 272 274 109 255 272 302 328 324 328 334 305 295 347 321 323 327
309 308 309 312 311 308 305 305 305 303 306 310 316 324 332 338 344 349 3 354 342 287 284 235 219 215 240 248 245 280 45 5 320 337 312 312 315 316 285 287 338 199 248 244 309 240 325 311 315 349 353 332 318 310
307 306 307 308 306 303 300 298 299 296 297 302 306 311 319 326 331 332 336 339 349 306 277 151 173 215 192 202 218 249 281 289 278 287 270 270 278 111 297 331 312 299 329 293 290 273 290 286 310 314 312 309 294 311
305 306 306 306 303 300 296 292 290 290 291 294 301 303 308 315 320 323 316 308 351 350 320 308 301 215 273 237 252 254 244 252 250 241 238 254 270 303 277 268 269 276 340 302 307 337 348 337 327 311 304 307 307 304
304 305 305 304 304 300 295 289 283 282 285 288 293 297 299 306 317 342 185 192 230 358 304 279 144 203 209 239 248 241 233 241 254 273 274 267 254 160 291 280 312 316 317 336 334 321 313 307 296 305 298 299 308 307
303 304 304 304 304 301 295 288 281 279 281 284 288 290 291 299 297 257 293 230 305 345 276 278 234 145 205 237 230 232 223 231 246 259 256 262 272 201 258 270 304 337 14 357 340 320 309 304 296 297 303 306 304 303
298 304 306 307 305 302 298 285 277 274 276 281 287 286 286 293 288 283 267 309 291 267 255 268 263 172 172 201 209 207 213 218 236 252 269 271 272 231 251 276 346 11 339 325 315 306 306 306 308 308 301 306 309 310
292 298 304 315 311 307 301 284 272 268 269 283 285 287 287 251 241 212 254 297 259 234 300 240 269 89 163 242 188 179 248 269 256 239 231 242 256 249 337 27 22 338 324 311 311 308 311 310 306 312 318 316 310 309
288 295 305 310 315 311 304 275 259 244 252 286 228 275 215 149 290 280 272 203 194 209 233 256 268 265 205 189 206 234 194 235 274 268 156 234 252 73 63 64 347 322 318 313 304 309 309 312 314 314 314 312 313 312
285 293 300 307 313 312 287 247 177 157 124 122 242 16 347 297 294 228 245 213 195 215 212 230 241 256 173 287 351 1 339 284 270 74 3 197 252 114 133 347 327 323 317 315 325 318 322 318 319 323 322 319 314 312
280 288 296 302 311 308 238 214 175 168 190 247 313 328 294 242 230 235 218 206 239 235 154 202 197 212 125 213 266 65 268 160 265 37 245 260 107 132 30 339 325 325 320 325 327 324 320 326 328 323 321 317 314 318
280 282 289 299 310 270 213 204 195 195 201 180 261 242 216 220 360 221 203 214 215 189 153 178 155 196 145 219 233 166 289 241 296 222 266 66 119 59 1 331 325 325 332 327 323 325 336 332 325 317 319 326 327 327
281 278 287 296 302 225 193 193 184 183 165 224 216 276 230 205 228 214 254 21 95 174 156 210 140 246 141 183 317 238 241 280 265 297 242 93 293 352 344 329 331 333 330 330 341 344 336 336 336 334 329 333 330 330
280 288 297 291 253 187 183 187 177 173 216 250 241 230 223 249 290 199 280 99 152 252 186 175 161 205 173 178 211 234 258 241 216 3 84 154 101 346 336 341 343 336 339 351 347 348 347 349 347 341 337 335 337 336
289 333 347 243 169 179 180 179 176 169 247 249 243 260 270 268 237 199 206 243 200 191 208 214 147 338 185 236 199 223 262 245 143 291 322 104 39 340 352 350 341 345 349 355 360 356 358 360 356 349 357 1 358 352
275 22 310 205 176 173 179 176 171 211 226 234 236 238 268 283 307 345 322 119 205 248 134 30 182 204 217 242 221 223 235 358 358 14 12 84 49 13 359 354 349 354 19 19 11 15 17 18 23 24 20 16 7 6
213 261 233 207 193 180 189 187 205 237 238 241 255 260 255 242 228 238 268 184 209 248 119 216 315 245 248 255 269 104 260 251 60 5 313 47 41 9 350 347 349 16 39 24 15 20 19 26 36 31 32 26 20 20
208 215 194 183 191 181 195 203 221 270 246 251 247 259 260 254 272 235 235 236 238 267 309 219 250 235 244 257 317 326 271 81 294 334 58 61 27 11 357 338 77 47 52 47 37 30 37 48 50 43 46 38 35 33
218 212 205 206 175 178 201 230 209 255 267 284 265 265 260 262 259 245 240 232 224 221 213 232 245 250 261 259 228 280 313 319 292 319 71 21 7 0 341 348 68 86 68 83 48 57 55 48 42 38 36 30 32 38
231 232 215 209 199 199 229 235 235 249 260 272 268 284 271 272 237 238 237 239 229 232 237 231 239 249 257 282 298 337 260 283 298 17 17 352 337 335 354 128 73 60 73 60 46 41 20 4 18 21 18 32 23 25
195 208 211 211 218 207 254 236 254 299 264 261 265 259 248 263 242 235 243 251 242 238 237 239 245 251 254 264 256 248 248 252 195 248 333 299 290 52 44 66 69 70 61 55 50 44 39 35 41 34 36 40 32 31
173 196 190 178 199 224 249 216 237 235 250 261 236 212 219 239 245 254 236 243 243 237 234 228 230 234 246 258 251 213 219 206 188 181 185 149 128 119 105 90 88 80 73 66 57 51 47 42 44 42 37 38 45 43
205 218 188 203 202 214 234 220 227 221 244 238 228 234 253 244 268 259 256 246 240 254 240 217 222 219 217 224 225 215 194 200 169 174 188 185 141 137 132 117 101 88 80 71 68 69 65 64 53 45 49 50 44 46
199 215 204 206 209 219 223 215 217 231 231 235 238 242 252 241 222 240 251 258 237 226 231 188 202 208 203 191 201 178 169 166 172 191 201 192 148 149 136 111 96 90 83 69 65 56 51 48 58 60 49 48 59 56
222 211 213 196 210 210 228 221 208 211 223 217 233 230 241 253 249 241 239 248 250 189 208 219 191 192 99 141 138 156 175 197 182 185 188 184 174 161 150 140 122 98 78 69 62 41 28 30 32 40 47 51 64 58
223 229 227 215 230 244 244 249 256 260 201 216 233 216 225 238 228 204 222 110 173 190 187 200 232 177 154 146 157 168 173 179 213 217 183 181 176 148 129 132 133 98 54 28 28 34 21 20 29 35 31 39 41 55
249 241 237 239 223 238 253 278 246 231 223 228 226 216 222 265 8 359 341 213 216 237 181 199 256 88 149 167 148 153 157 157 162 170 174 166 159 142 130 141 165 196 190 106 345 358 6 4 9 66 52 46 54 69
237 216 229 246 245 249 248 247 251 286 295 289 283 282 337 343 323 274 112 187 265 254 139 127 139 175 167 175 145 151 162 172 176 177 176 177 174 170 158 213 206 217 200 191 82 113 87 89 79 57 25 44 34 66
256 235 231 225 230 233 242 242 272 265 278 276 285 311 279 261 224 239 277 279 267 134 104 155 172 175 167 160 144 146 169 142 164 181 190 195 174 162 166 201 241 276 165 174 146 129 13 245 4 4 32 31 47 82
265 209 224 230 251 258 279 274 249 257 251 258 263 252 255 248 299 307 190 138 130 147 164 127 178 175 222 186 181 170 172 191 218 200 199 132 130 129 168 184 188 169 154 166 189 181 71 73 74 50 51 58 53 48
233 236 240 261 271 284 302 279 276 264 257 239 219 233 250 265 291 290 211 179 172 167 184 198 201 215 219 230 192 168 155 111 136 172 170 158 150 176 181 201 199 62 96 116 98 74 69 57 40 32 54 60 61 90
234 245 257 283 283 257 235 206 241 248 225 221 226 232 243 248 262 276 218 210 222 216 209 213 226 224 207 191 172 175 155 159 146 163 179 183 212 190 192 233 195 12 90 112 184 49 81 80 69 63 59 47 45 50